This is the latest recevied weather packets stored in our database for station/object KB4MLW-13. If no packets are shown the sender has not sent any weather packets the latest 10 day(s).
| Time | Temp. | Humidity | Pressure | Rain* | Wind** | Luminosity | Snow |
|---|---|---|---|---|---|---|---|
| 1788292229 | 34.44° C | 59% | 1001 hPa | 0 mm | - | - | - |
| 1788292168 | 34.44° C | 58% | 1000.9 hPa | 0 mm | - | - | - |
| 1788292108 | 34.44° C | 57% | 1001 hPa | 0 mm | - | - | - |
| 1788292048 | 34.44° C | 56% | 1000.8 hPa | 0 mm | - | - | - |
| 1788291959 | 34.44° C | 57% | 1000.9 hPa | 0 mm | - | - | - |
| 1788291898 | 34.44° C | 56% | 1000.9 hPa | 0 mm | - | - | - |
| 1788291838 | 34.44° C | 56% | 1000.8 hPa | 0 mm | - | - | - |
| 1788291778 | 34.44° C | 55% | 1000.7 hPa | 0 mm | - | - | - |
| 1788291690 | 35° C | 56% | 1001 hPa | 0 mm | - | - | - |
| 1788291599 | 35° C | 56% | 1001 hPa | 0 mm | - | - | - |
| 1788291541 | 35° C | 55% | 1001.1 hPa | 0 mm | - | - | - |
| 1788291449 | 35° C | 55% | 1001 hPa | 0 mm | - | - | - |
| 1788291388 | 35° C | 56% | 1000.8 hPa | 0 mm | - | - | - |
| 1788291268 | 35° C | 55% | 1001 hPa | 0 mm | - | - | - |
| 1788291208 | 35° C | 57% | 1001.1 hPa | 0 mm | - | - | - |
| 1788291118 | 35° C | 54% | 1001.2 hPa | 0 mm | - | - | - |
| 1788291058 | 35° C | 53% | 1001 hPa | 0 mm | - | - | - |
| 1788290998 | 35° C | 55% | 1001 hPa | 0 mm | - | - | - |
| 1788290939 | 35° C | 56% | 1001 hPa | 0 mm | - | - | - |
| 1788290878 | 35° C | 56% | 1001.1 hPa | 0 mm | - | - | - |
| 1788290818 | 35° C | 60% | 1001 hPa | 0 mm | - | - | - |
| 1788290729 | 34.44° C | 59% | 1001.1 hPa | 0 mm | - | - | - |
| 1788290639 | 34.44° C | 59% | 1001.2 hPa | 0 mm | - | - | - |
| 1788290578 | 33.89° C | 57% | 1001.1 hPa | 0 mm | - | - | - |
| 1788290518 | 33.89° C | 58% | 1001.2 hPa | 0 mm | - | - | - |
* Rain latest hour (hover to see other rain measurements)
** Current wind speed in m/s (hover to see current wind gust speed)